Charlevoix, MI

8:18 PM EDT on April 19, 2018 (GMT -0400)
Charlevoix Municipal

Weather History for KCVX - May, 2014

Change the Weather History Date:

Wednesday, May 7, 2014

  Actual Average Record
Temperature  
Mean Temperature 50 °F -  
Max Temperature 57 °F 71 °F 83 °F (2015)
Min Temperature 42 °F 52 °F 33 °F (2003)
Degree Days  
Heating Degree Days 16    
Moisture  
Dew Point 32 °F    
Average Humidity 51    
Maximum Humidity 59    
Minimum Humidity 41    
Precipitation  
Precipitation 0.00 in - - ()
Sea Level Pressure  
Sea Level Pressure 30.08 in    
Wind  
Wind Speed 10 mph (ESE)    
Max Wind Speed 16 mph    
Max Gust Speed 24 mph    
Visibility 10 miles    
Events Rain    
Averages and records for this station are not official NWS values.
T = Trace of Precipitation, MM = Missing Value Source: NWS Daily Summary

Daily Weather History Graph

Daily Weather History Graph

Search for Another Location

Airport or City:

Astronomy

May. 07, 2014 Rise Set
Actual Time 6:21 AM EDT 8:54 PM EDT
Civil Twilight 5:47 AM EDT 9:28 PM EDT
Nautical Twilight 5:05 AM EDT 10:10 PM EDT
Astronomical Twilight 4:18 AM EDT 10:58 PM EDT
Moon 1:39 PM EDT (5/7) 2:40 AM EDT (5/7)
Length of Visible Light 15h 40m
Length of Day
14h 33m
First Quarter, 55% of the Moon is Illuminated
May 7
First Quarter
May 14
Full
May 21
Last Quarter
May 28
New
Jun 5
First Quarter

Hourly Weather History & Observations

Time (EDT) Temp. Windchill Dew Point Humidity Pressure Visibility Wind Dir Wind Speed Gust Speed Precip Events Conditions
12:14 AM 48.2 °F - 25.7 °F 42% 30.12 in 10.0 mi ESE 9.2 mph - N/A   Clear
12:35 AM 47.3 °F - 26.2 °F 44% 30.12 in 10.0 mi ESE 9.2 mph - N/A   Clear
12:55 AM 46.8 °F - 27.0 °F 46% 30.12 in 10.0 mi ESE 10.4 mph - N/A   Clear
1:14 AM 46.6 °F - 27.3 °F 47% 30.12 in 10.0 mi ESE 9.2 mph - N/A   Clear
1:35 AM 46.2 °F 41.2 °F 26.8 °F 47% 30.10 in 10.0 mi ESE 10.4 mph - N/A   Clear
1:55 AM 45.7 °F 41.5 °F 26.6 °F 47% 30.11 in 10.0 mi ESE 8.1 mph - N/A   Clear
2:14 AM 45.5 °F 41.3 °F 25.9 °F 46% 30.10 in 10.0 mi ESE 8.1 mph - N/A   Clear
2:35 AM 44.6 °F 40.7 °F 26.1 °F 48% 30.10 in 5.0 mi ESE 6.9 mph - N/A   Haze
2:55 AM 44.2 °F 39.7 °F 25.9 °F 49% 30.11 in 10.0 mi ESE 8.1 mph - N/A   Clear
3:15 AM 44.1 °F 39.5 °F 25.9 °F 49% 30.11 in 10.0 mi ESE 8.1 mph - N/A   Clear
3:35 AM 43.9 °F 39.3 °F 26.6 °F 51% 30.09 in 10.0 mi ESE 8.1 mph - N/A   Clear
3:54 AM 43.7 °F 39.7 °F 25.7 °F 49% 30.10 in 10.0 mi ESE 6.9 mph - N/A   Clear
4:15 AM 43.9 °F 39.3 °F 25.7 °F 49% 30.10 in 10.0 mi ESE 8.1 mph - N/A   Clear
4:35 AM 43.7 °F 39.1 °F 25.7 °F 49% 30.11 in 10.0 mi ESE 8.1 mph - N/A   Clear
4:54 AM 43.5 °F 38.9 °F 25.7 °F 50% 30.10 in 10.0 mi East 8.1 mph - N/A   Clear
5:15 AM 43.0 °F 37.7 °F 27.5 °F 54% 30.10 in 10.0 mi East 9.2 mph - N/A   Clear
5:35 AM 42.8 °F 37.5 °F 27.7 °F 55% 30.10 in 10.0 mi East 9.2 mph - N/A   Clear
5:54 AM 42.6 °F 36.8 °F 29.3 °F 59% 30.10 in 10.0 mi East 10.4 mph - N/A   Clear
6:15 AM 43.0 °F 38.2 °F 28.8 °F 57% 30.10 in 10.0 mi ESE 8.1 mph - N/A   Clear
6:34 AM 43.2 °F 36.6 °F 27.7 °F 54% 30.11 in 10.0 mi East 12.7 mph - N/A   Clear
6:55 AM 43.3 °F 37.2 °F 27.5 °F 54% 30.13 in 10.0 mi East 11.5 mph - N/A   Scattered Clouds
7:15 AM 43.9 °F 38.8 °F 27.5 °F 53% 30.15 in 10.0 mi ESE 9.2 mph - N/A   Overcast
7:34 AM 44.1 °F 37.7 °F 28.0 °F 53% 30.14 in 10.0 mi East 12.7 mph 18.4 mph N/A   Overcast
7:55 AM 44.1 °F 37.1 °F 27.9 °F 53% 30.13 in 10.0 mi East 15.0 mph - N/A   Scattered Clouds
8:15 AM 44.1 °F 37.4 °F 28.6 °F 55% 30.12 in 10.0 mi ESE 13.8 mph - N/A   Clear
8:35 AM 44.6 °F 38.1 °F 28.4 °F 53% 30.10 in 10.0 mi ESE 13.8 mph - N/A   Clear
8:55 AM 45.5 °F 38.9 °F 29.1 °F 53% 30.10 in 10.0 mi East 15.0 mph 18.4 mph N/A   Clear
9:14 AM 46.4 °F 40.1 °F 29.7 °F 52% 30.10 in 10.0 mi East 15.0 mph - N/A   Scattered Clouds
9:35 AM 46.9 °F - 30.0 °F 52% 30.12 in 10.0 mi ESE 10.4 mph - N/A   Mostly Cloudy
9:55 AM 48.0 °F - 30.9 °F 52% 30.13 in 10.0 mi ESE 10.4 mph 19.6 mph N/A   Mostly Cloudy
10:14 AM 48.7 °F - 30.9 °F 50% 30.12 in 10.0 mi ESE 12.7 mph - N/A   Scattered Clouds
10:35 AM 49.1 °F - 31.1 °F 50% 30.10 in 10.0 mi East 12.7 mph 18.4 mph N/A   Scattered Clouds
10:54 AM 50.0 °F - 31.3 °F 49% 30.10 in 10.0 mi ESE 15.0 mph 18.4 mph N/A   Scattered Clouds
11:15 AM 50.7 °F - 32.0 °F 49% 30.09 in 7.0 mi East 13.8 mph - N/A   Mostly Cloudy
11:34 AM 50.9 °F - 33.1 °F 51% 30.10 in 10.0 mi East 9.2 mph - N/A   Overcast
11:55 AM 52.2 °F - 33.6 °F 49% 30.13 in 10.0 mi ESE 6.9 mph - N/A Rain Light Rain
12:15 PM 52.2 °F - 32.5 °F 47% 30.14 in 10.0 mi East 5.8 mph - N/A   Overcast
12:35 PM 52.9 °F - 32.0 °F 45% 30.09 in 10.0 mi East 12.7 mph - N/A   Mostly Cloudy
1:15 PM 53.1 °F - 38.3 °F 57% 30.05 in 7.0 mi East 12.7 mph 19.6 mph N/A Rain Light Rain
1:34 PM 53.8 °F - 37.4 °F 54% 30.05 in 10.0 mi ESE 16.1 mph - N/A   Overcast
2:15 PM 56.3 °F - 35.4 °F 46% 30.08 in 10.0 mi East 13.8 mph - N/A   Mostly Cloudy
2:34 PM 56.3 °F - 34.5 °F 44% 30.08 in 10.0 mi East 11.5 mph - N/A   Overcast
2:55 PM 56.5 °F - 34.5 °F 44% 30.08 in 10.0 mi East 10.4 mph - N/A   Overcast
3:14 PM 56.8 °F - 34.2 °F 42% 30.09 in 10.0 mi East 9.2 mph - N/A   Overcast
3:35 PM 56.7 °F - 34.7 °F 44% 30.10 in 10.0 mi ESE 5.8 mph - N/A   Overcast
3:55 PM 56.7 °F - 34.3 °F 43% 30.08 in 10.0 mi ESE 9.2 mph - N/A   Overcast
4:14 PM 57.2 °F - 34.2 °F 42% 30.07 in 10.0 mi ESE 8.1 mph - N/A   Overcast
4:35 PM 57.7 °F - 34.0 °F 41% 30.06 in 10.0 mi East 11.5 mph - N/A   Overcast
4:55 PM 57.0 °F - 33.8 °F 42% 30.05 in 10.0 mi ESE 12.7 mph - N/A   Mostly Cloudy
5:14 PM 56.3 °F - 33.4 °F 42% 30.04 in 10.0 mi ESE 10.4 mph - N/A   Mostly Cloudy
5:35 PM 57.0 °F - 37.2 °F 48% 30.04 in 10.0 mi ESE 5.8 mph - N/A   Drizzle
5:55 PM 53.8 °F - 39.2 °F 58% 30.04 in 10.0 mi East 4.6 mph - N/A Rain Light Rain
6:14 PM 54.1 °F - 39.7 °F 58% 30.03 in 10.0 mi ESE 8.1 mph - N/A   Scattered Clouds
6:35 PM 53.8 °F - 38.8 °F 57% 30.04 in 10.0 mi ESE 10.4 mph - N/A   Clear
6:54 PM 53.6 °F - 37.6 °F 55% 30.03 in 10.0 mi ESE 11.5 mph 17.3 mph N/A   Clear
7:15 PM 54.7 °F - 36.7 °F 51% 30.05 in 10.0 mi SE 9.2 mph - N/A   Scattered Clouds
7:35 PM 55.0 °F - 36.3 °F 49% 30.04 in 10.0 mi East 11.5 mph 16.1 mph N/A   Mostly Cloudy
7:54 PM 54.5 °F - 36.1 °F 50% 30.06 in 10.0 mi SE 11.5 mph 18.4 mph N/A   Scattered Clouds
8:15 PM 53.8 °F - 36.5 °F 52% 30.03 in 10.0 mi ESE 16.1 mph 24.2 mph N/A   Scattered Clouds
8:34 PM 52.9 °F - 36.5 °F 54% 30.03 in 10.0 mi ESE 15.0 mph 21.9 mph N/A   Scattered Clouds
8:55 PM 52.7 °F - 36.7 °F 55% 30.03 in 10.0 mi ESE 15.0 mph 19.6 mph N/A   Mostly Cloudy
9:14 PM 52.9 °F - 36.9 °F 55% 30.03 in 10.0 mi ESE 16.1 mph 23.0 mph N/A   Overcast
9:35 PM 52.5 °F - 37.0 °F 56% 30.02 in 10.0 mi ESE 16.1 mph 23.0 mph N/A   Overcast
9:55 PM 51.8 °F - 37.2 °F 58% 30.02 in 10.0 mi ESE 13.8 mph 23.0 mph N/A   Scattered Clouds
10:14 PM 51.3 °F - 37.4 °F 59% 30.02 in 10.0 mi ESE 13.8 mph - N/A   Clear
10:35 PM 51.1 °F - 37.0 °F 59% 30.02 in 10.0 mi ESE 12.7 mph - N/A   Clear
10:55 PM 51.4 °F - 36.9 °F 58% 30.02 in 10.0 mi ESE 13.8 mph - N/A   Scattered Clouds
11:14 PM 51.4 °F - 36.9 °F 58% 30.02 in 10.0 mi ESE 11.5 mph - N/A   Mostly Cloudy
11:35 PM 51.3 °F - 36.7 °F 57% 30.01 in 10.0 mi ESE 12.7 mph 19.6 mph N/A   Overcast
11:54 PM 51.3 °F - 37.0 °F 58% 30.01 in 10.0 mi ESE 11.5 mph - N/A   Mostly Cloudy